Location: Unspecified
(43.1763°N, 79.4719°W)
Time: 12:39:57
(UTC-04:00)

Cosmos 1674 - Visible Passes

Search period start: 19 June 2018 00:00
Search period end: 29 June 2018 00:00
Orbit: 498 x 520 km, 82.5° (Epoch: 18 June)

Date Brightness Start Highest point End Pass type
(mag) Time Alt. Az. Time Alt. Az. Time Alt. Az.
19 Jun 5.7 00:21:12 10° WNW 00:21:35 10° WNW 00:21:57 10° WNW visible
19 Jun 3.1 22:25:59 18° SSE 22:28:27 45° E 22:32:07 10° NNE visible
20 Jun 5.5 00:02:30 10° W 00:04:18 13° WNW 00:06:07 10° NW visible
20 Jun 3.4 22:08:27 13° SSE 22:11:20 34° E 22:14:50 10° NNE visible
20 Jun 5.4 23:44:36 10° WSW 23:47:02 16° WNW 23:49:31 10° NNW visible
21 Jun 3.8 21:51:01 10° SSE 21:54:14 27° E 21:57:30 10° NNE visible
21 Jun 5.1 23:26:54 10° WSW 23:29:48 20° WNW 23:32:43 10° NNW visible
22 Jun 4.1 21:34:14 10° SE 21:37:08 21° E 21:40:05 10° NE visible
22 Jun 4.7 23:09:20 10° SW 23:12:33 26° WNW 23:15:50 10° NNW visible
23 Jun 4.4 22:51:53 10° SW 22:55:21 32° WNW 22:58:51 10° N visible
24 Jun 3.9 22:34:30 10° SSW 22:38:08 42° WNW 22:41:50 10° N visible
25 Jun 3.4 22:17:12 10° SSW 22:20:57 55° W 22:24:45 10° N visible
26 Jun 2.9 21:59:57 10° SSW 22:03:46 73° W 22:07:38 10° N visible
27 Jun 2.7 21:42:47 10° S 21:46:36 85° E 21:50:29 10° N visible
